Date String (YYYY-MM-DD hh:mm:ss) UTC,Instrument flags,absolute air pressure of the measurement (hPa),sample flow rate (lpm),inlet stack bypass flow (lpm),air temperature of the measurement (°C),ambient temperature measured by the external sensor (°C),aerosol sample conditioner tube jacket temperature (°C),OPC LED temperature (°C),internal box temperature (°C),relative humidity of the measurement (%),span deviation,mass concentration of particles derived from Lorenz-Mie calculation of OPC scattering (μg/m³),mass concentration of particles derived from Lorenz-Mie calculation of OPC scattering (μg/m³),mass concentration of particles derived from Lorenz-Mie calculation of OPC scattering (μg/m³)
DateTimeUTC,F1_M11,P_M11,Q1_M11,Q2_M11,T1_M11,T2_M11,T3_M11,T4_M11,T5_M11,U1_M11,ZSPAN_M11,X0_M11,X2_M11,X1_M11
2023-11-14 08:00:00,SystemResetWarning,0830.9,5.00,000.00,027.1,026.1,000.0,035.6,028.5,6.8,0000.0,0007.09,0002.94,0002.29
2023-11-14 08:01:00,SystemResetWarning,0830.9,5.01,000.00,027.1,026.1,000.0,035.6,028.5,6.7,0000.0,0007.26,0002.83,0002.18
2023-11-14 08:02:00,SystemResetWarning,0830.8,5.00,000.00,027.1,026.1,000.0,035.6,028.6,6.7,0000.0,0006.80,0002.70,0002.07
2023-11-14 08:03:00,SystemResetWarning,0830.9,5.01,000.00,027.1,026.1,000.0,035.6,028.6,6.5,0000.0,0006.36,0002.54,0001.94
2023-11-14 08:04:00,SystemResetWarning,0830.8,5.00,000.00,027.1,026.1,000.0,035.6,028.6,6.7,0000.0,0005.97,0002.50,0001.91
2023-11-14 08:05:00,SystemResetWarning,0830.9,5.00,000.00,027.1,026.1,000.0,035.6,028.6,6.7,0000.0,0004.98,0002.48,0001.90
2023-11-14 08:06:00,SystemResetWarning,0830.9,5.00,000.00,027.2,026.1,000.0,035.6,028.6,7.1,0000.0,0005.02,0002.53,0001.90
2023-11-14 08:07:00,SystemResetWarning,0830.9,5.00,000.00,027.2,026.1,000.0,035.6,028.5,7.7,0000.0,0005.60,0002.59,0001.91
2023-11-14 08:08:00,SystemResetWarning,0830.9,4.99,000.00,027.2,026.1,000.0,035.6,028.5,8.0,0000.0,0007.23,0002.67,0001.97
2023-11-14 08:09:00,SystemResetWarning,0830.9,4.99,000.00,027.2,026.1,000.0,035.6,028.5,8.0,0000.0,0007.64,0002.84,0002.07
2023-11-14 08:10:00,SystemResetWarning,0830.8,4.99,000.00,027.2,026.1,000.0,035.5,028.6,8.2,0000.0,0007.79,0002.99,0002.13
2023-11-14 08:11:00,SystemResetWarning,0830.8,5.00,000.00,027.2,026.1,000.0,035.5,028.6,7.1,0000.0,0008.08,0003.14,0002.22
2023-11-14 08:12:00,SystemResetWarning,0830.8,5.00,000.00,027.2,026.2,000.0,035.5,028.6,6.4,0000.0,0008.19,0003.24,0002.34
2023-11-14 08:13:00,SystemResetWarning,0830.8,5.01,000.00,027.2,026.2,000.0,035.5,028.6,5.6,0000.0,0009.49,0003.42,0002.53
2023-11-14 08:14:00,SystemResetWarning,0830.8,5.01,000.00,027.2,026.2,000.0,035.5,028.6,5.3,0000.0,0011.29,0003.73,0002.87
2023-11-14 08:15:00,SystemResetWarning,0830.7,5.00,000.00,027.2,026.2,000.0,035.5,028.6,5.3,0000.0,0012.17,0003.95,0003.15
2023-11-14 08:16:00,SystemResetWarning,0830.7,4.99,000.00,027.2,026.2,000.0,035.5,028.6,5.3,0000.0,0012.40,0004.20,0003.32
2023-11-14 08:17:00,SystemResetWarning,0830.7,4.99,000.00,027.2,026.2,000.0,035.5,028.6,5.4,0000.0,0012.40,0004.35,0003.43
2023-11-14 08:18:00,SystemResetWarning,0830.7,5.00,000.00,027.2,026.2,000.0,035.5,028.6,5.4,0000.0,0012.43,0004.33,0003.44
2023-11-14 08:19:00,SystemResetWarning,0830.8,5.00,000.00,027.2,026.2,000.0,035.6,028.6,6.2,0000.0,0011.94,0004.27,0003.42
2023-11-14 08:20:00,SystemResetWarning,0830.7,5.01,000.00,027.2,026.2,000.0,035.6,028.5,7.6,0000.0,0011.32,0004.19,0003.38
2023-11-14 08:21:00,SystemResetWarning,0830.7,5.01,000.00,027.2,026.2,000.0,035.6,028.6,7.8,0000.0,0011.62,0004.10,0003.34
2023-11-14 08:22:00,SystemResetWarning,0830.7,5.00,000.00,027.1,026.1,000.0,035.6,028.6,8.0,0000.0,0011.47,0004.01,0003.31
2023-11-14 08:23:00,SystemResetWarning,0830.7,4.99,000.00,027.1,026.1,000.0,035.5,028.5,7.9,0000.0,0012.04,0003.94,0003.27
2023-11-14 08:24:00,SystemResetWarning,0830.8,4.99,000.00,027.1,026.1,000.0,035.5,028.5,8.1,0000.0,0011.47,0003.79,0003.17
2023-11-14 08:25:00,SystemResetWarning,0830.7,5.00,000.00,027.1,026.1,000.0,035.5,028.5,7.7,0000.0,0009.63,0003.57,0003.03
2023-11-14 08:26:00,SystemResetWarning,0830.7,5.01,000.00,027.1,026.1,000.0,035.5,028.5,6.5,0000.0,0008.78,0003.52,0002.95
2023-11-14 08:27:00,SystemResetWarning,0830.7,5.01,000.00,027.1,026.1,000.0,035.5,028.5,5.7,0000.0,0008.97,0003.44,0002.84
2023-11-14 08:28:00,SystemResetWarning,0830.8,5.00,000.00,027.1,026.1,000.0,035.5,028.5,5.5,0000.0,0009.23,0003.45,0002.83
2023-11-14 08:29:00,SystemResetWarning,0830.9,4.99,000.00,027.1,026.1,000.0,035.5,028.5,5.5,0000.0,0010.42,0003.63,0003.01
2023-11-14 08:30:00,SystemResetWarning,0830.9,4.99,000.00,027.1,026.1,000.0,035.5,028.5,7.2,0000.0,0012.09,0003.84,0003.18
2023-11-14 08:31:00,SystemResetWarning,0830.8,5.01,000.00,027.1,026.1,000.0,035.5,028.5,7.2,0000.0,0012.85,0004.01,0003.29
2023-11-14 08:32:00,SystemResetWarning,0830.9,5.01,000.00,027.1,026.1,000.0,035.5,028.6,7.1,0000.0,0012.89,0004.13,0003.35
2023-11-14 08:33:00,SystemResetWarning,0830.9,5.00,000.00,027.1,026.1,000.0,035.5,028.5,7.9,0000.0,0013.13,0004.17,0003.36
2023-11-14 08:34:00,SystemResetWarning,0830.9,5.00,000.00,027.1,026.1,000.0,035.5,028.5,8.4,0000.0,0012.60,0004.21,0003.38
2023-11-14 08:35:00,SystemResetWarning,0830.8,5.00,000.00,027.1,026.1,000.0,035.5,028.6,8.5,0000.0,0012.51,0004.21,0003.40
2023-11-14 08:36:00,SystemResetWarning,0830.9,4.99,000.00,027.1,026.1,000.0,035.5,028.6,8.3,0000.0,0013.35,0004.30,0003.45
2023-11-14 08:37:00,SystemResetWarning,0830.8,5.00,000.00,027.1,026.1,000.0,035.5,028.6,8.3,0000.0,0013.78,0004.21,0003.38
2023-11-14 08:38:00,SystemResetWarning,0830.8,4.99,000.00,027.1,026.1,000.0,035.5,028.5,7.4,0000.0,0014.12,0004.11,0003.31
2023-11-14 08:39:00,SystemResetWarning,0830.8,5.00,000.00,027.1,026.1,000.0,035.5,028.6,7.5,0000.0,0013.84,0004.02,0003.27
2023-11-14 08:40:00,SystemResetWarning,0830.9,5.01,000.00,027.1,026.1,000.0,035.5,028.6,8.0,0000.0,0014.18,0003.97,0003.23
2023-11-14 08:41:00,SystemResetWarning,0830.9,5.01,000.00,027.1,026.1,000.0,035.5,028.5,8.3,0000.0,0013.54,0003.94,0003.20
2023-11-14 08:42:00,SystemResetWarning,0830.9,5.00,000.00,027.1,026.1,000.0,035.5,028.6,8.2,0000.0,0012.89,0003.94,0003.19
2023-11-14 08:43:00,SystemResetWarning,0830.8,5.00,000.00,027.1,026.1,000.0,035.5,028.6,8.4,0000.0,0013.06,0003.99,0003.23
2023-11-14 08:44:00,SystemResetWarning,0830.8,5.00,000.00,027.2,026.1,000.0,035.5,028.6,8.1,0000.0,0013.16,0004.08,0003.30
2023-11-14 08:45:00,SystemResetWarning,0830.8,5.00,000.00,027.2,026.1,000.0,035.5,028.6,8.1,0000.0,0013.55,0004.17,0003.38
2023-11-14 08:46:00,SystemResetWarning,0830.9,4.99,000.00,027.2,026.1,000.0,035.5,028.6,8.1,0000.0,0013.89,0004.30,0003.45
2023-11-14 08:47:00,SystemResetWarning,0830.8,5.00,000.00,027.2,026.1,000.0,035.5,028.6,7.6,0000.0,0013.70,0004.39,0003.47
2023-11-14 08:48:00,SystemResetWarning,0830.9,4.99,000.00,027.2,026.2,000.0,035.5,028.5,6.7,0000.0,0013.65,0004.41,0003.48
2023-11-14 08:49:00,SystemResetWarning,0830.8,5.00,000.00,027.2,026.1,000.0,035.5,028.5,7.0,0000.0,0013.16,0004.45,0003.51
2023-11-14 08:50:00,SystemResetWarning,0830.9,5.01,000.00,027.2,026.1,000.0,035.5,028.5,7.2,0000.0,0013.38,0004.45,0003.48
2023-11-14 08:51:00,SystemResetWarning,0830.9,5.01,000.00,027.2,026.1,000.0,035.5,028.5,6.8,0000.0,0012.89,0004.37,0003.46
2023-11-14 08:52:00,SystemResetWarning,0830.9,5.00,000.00,027.2,026.1,000.0,035.5,028.5,6.9,0000.0,0012.12,0004.30,0003.43
2023-11-14 08:53:00,SystemResetWarning,0830.9,4.98,000.00,027.2,026.1,000.0,035.5,028.6,7.4,0000.0,0012.02,0004.25,0003.40
2023-11-14 08:54:00,SystemResetWarning,0830.9,5.00,000.00,027.2,026.1,000.0,035.5,028.6,6.8,0000.0,0011.67,0004.15,0003.33
2023-11-14 08:55:00,SystemResetWarning,0830.9,5.00,000.00,027.2,026.1,000.0,035.5,028.7,6.5,0000.0,0011.94,0004.10,0003.30
2023-11-14 08:56:00,SystemResetWarning,0830.9,5.00,000.00,027.2,026.2,000.0,035.5,028.6,5.4,0000.0,0013.07,0004.11,0003.28
2023-11-14 08:57:00,SystemResetWarning,0830.8,5.00,000.00,027.2,026.2,000.0,035.5,028.6,5.1,0000.0,0013.31,0004.04,0003.24
2023-11-14 08:58:00,SystemResetWarning,0830.8,5.00,000.00,027.2,026.2,000.0,035.5,028.6,4.9,0000.0,0013.02,0003.93,0003.20
2023-11-14 08:59:00,SystemResetWarning,0830.9,5.00,000.00,027.2,026.1,000.0,035.5,028.6,5.0,0000.0,0013.96,0003.91,0003.19
